Hourly Data Report for October 30, 2014

All times are specified in Local Standard Time (LST). Add 1 hour to adjust for Daylight Saving Time where and when it is observed.

WINNIPEG A CS
MANITOBA

49°55'00.000" N
97°14'58.000" W
238.70 m
502S001
71849
XWG

Download Data

Hourly Data (October 2014)
Hourly Data Report for October 30, 2014
Temp Definition
°C
Dew Point Temp Definition
°C
Rel Hum Definition
%
Wind Dir Definition
10's deg

Wind Spd Definition
km/h
Visibility Definition
km
Stn Press Definition
kPa
Hmdx Definition


Wind Chill Definition


Weather Definition


TIME
00:00 1.5 -0.7 86 11 7   98.93     LegendNANA
01:00 0.9 -0.3 92 1 6   99.00     LegendNANA
02:00 1.4 0.2 92 4 8   99.05     LegendNANA
03:00 1.3 0.2 92 33 6   99.10     LegendNANA
04:00 1.6 0.1 90 33 12   99.18     LegendNANA
05:00 1.8 -0.2 86 34 14   99.27     LegendNANA
06:00 1.8 -0.9 82 35 26   99.38     LegendNANA
07:00 0.9 -1.9 82 34 30   99.47     LegendNANA
08:00 0.7 -1.7 84 34 26   99.59     LegendNANA
09:00 0.9 -2.9 76 35 35   99.71     LegendNANA
10:00 1.3 -3.4 71 35 34   99.82     LegendNANA
11:00 2.1 -3.1 68 35 23   99.89     LegendNANA
12:00 2.2 -5.1 59 34 38   99.95     LegendNANA
13:00 3.2 -6.7 48 35 40   99.99     LegendNANA
14:00 1.9 -8.6 46 36 43   100.09     LegendNANA
15:00 2.4 -7.4 48 36 36   100.18     LegendNANA
16:00 1.3 -8.2 49 36 28   100.28     LegendNANA
17:00 -0.8 -8.0 58 2 26   100.42   -7 LegendNANA
18:00 -2.5 -8.1 65 1 20   100.50   -8 LegendNANA
19:00 -3.3 -7.8 71 36 17   100.61   -9 LegendNANA
20:00 -4.2 -8.1 74 35 16   100.65   -10 LegendNANA
21:00 -5.0 -8.1 79 35 13   100.64   -10 LegendNANA
22:00 -5.6 -8.5 80 1 6   100.72   -8 LegendNANA
23:00 -7.6 -9.8 84 35 6   100.73   -11 LegendNANA

Notes on Data Quality.

Legend

  • E = Estimated
  • M = Missing
  • NA = Not Available
  • ‡ = Partner data that is not subject to review by the National Climate Archives
Date modified: